Regional Weather Roundup
Issued by NWS State College, PA

Home | Current Version | Previous Version | Text Only | Print | Product List | Glossary On
Versions: 1 2 3 4 5 6 7 8 9 10 11 12 13 14 15 16 17 18 19 20 21 22 23 24 25 26 27 28 29 30 31 32 33 34 35 36 37 38 39 40 41 42 43 44 45 46 47 48 49 50
000
ASUS41 KCTP 282010
RWRCTP

REGIONAL WEATHER ROUNDUP
NATIONAL WEATHER SERVICE STATE COLLEGE PA
400 PM EDT THU APR 28 2016

Note: "fair" indicates few or no clouds below 12,000 feet with no
significant weather and/or obstructions to visibility.

* = STATION THAT DOES NOT REPORT PRECIPITATION /E.G. RAIN...SNOW...ETC/
    THUNDER OR FOG.

PAZ002>004-007>009-013>016-020>023-029>032-282100-
WESTERN PENNSYLVANIA

CITY           SKY/WX    TMP DP  RH WIND       PRES   REMARKS
ERIE           CLOUDY    47  40  76 NE9       29.94F
MEADVILLE      LGT RAIN  43  41  93 E8        29.93S
FRANKLIN*      CLOUDY    43  39  87 E6        29.95S
NEW CASTLE     CLOUDY    45  43  93 NE8       29.92S
BEAVER COUNTY  CLOUDY    45  45 100 E3        29.90S FOG
BUTLER*        CLOUDY    45  41  87 NE12      29.91F
PITTSBURGH INT DRIZZLE   51  48  89 NE6       29.87F FOG
PITTSBURGH     CLOUDY    55  53  93 CALM      29.85F FOG
INDIANA*       CLOUDY    46  45  93 E10       29.94S
LATROBE        CLOUDY    54  54 100 SE9       29.88S
WASHINGTON CO* CLOUDY    63  55  77 NW7       29.86F
$$

PAZ004>006-010>012-017>019-024>028-033>037-041-042-045-046-049>053-282100-
CENTRAL PENNSYLVANIA

CITY           SKY/WX    TMP DP  RH WIND       PRES   REMARKS
BRADFORD       LGT RAIN  43  37  79 SE12      29.95F
DUBOIS         LGT RAIN  40  37  89 E10       29.94S FOG
CLEARFIELD     LGT RAIN  41  38  89 NE10      29.98F FOG
JOHNSTOWN      LGT RAIN  44  40  85 SE12      29.91F
ALTOONA        CLOUDY    42  39  89 NE7       29.97F
STATE COLLEGE  LGT RAIN  41  39  93 NE8       30.00F
WILLIAMSPORT   LGT RAIN  47  40  76 NW3       30.02S
SELINSGROVE    RAIN      45  40  82 CALM      30.03F
FT INDIANTOWN  DRIZZLE   45  41  88 NE6       30.02F
CAPITAL CITY   NOT AVBL
HARRISBURG     LGT RAIN  45  42  89 E5        30.02S FOG
YORK           LGT RAIN  44  43  96 NE7       30.00F FOG
$$

PAZ038>040-043-044-047-048-054-055-060>062-067>071-282100-
EASTERN PENNSYLVANIA

CITY           SKY/WX    TMP DP  RH WIND       PRES   REMARKS
SCRANTON       LGT RAIN  49  38  65 SW6       30.00R
MOUNT POCONO   LGT RAIN  50  29  44 S7        29.97F
ALLENTOWN      LGT RAIN  52  39  61 S7        30.02S
QUAKERTOWN*    CLOUDY    48  41  76 SW7       30.04R
READING        RAIN      46  41  82 E6        30.02F
LANCASTER      LGT RAIN  45  43  93 NE8       30.02S FOG
COATESVILLE    LGT RAIN  45  45 100 CALM      30.03F
POTTSTOWN      LGT RAIN  46  40  79 VRB5      30.05R
BLUE BELL      CLOUDY    45  41  87 CALM      30.04R
DOYLESTOWN     LGT RAIN  46  40  79 S5        30.03R
WILLOW GROVE   NOT AVBL
NORTH PHILA    CLOUDY    50  39  66 E7        30.05S
PHILADELPHIA   CLOUDY    49  39  68 E6        30.04S
$$



USA.gov is the U.S. government's official web portal to all federal, state and local government web resources and services.